Wetterdaten: Mittwoch, 19.06.2013
Datum Zeit Temperatur Luftfeuchte Luftdruck Regen Wind Richtung Richtung Taupunkt Windchill Windben
19.06.2013 00:00 20,7 C 66 % 1020,9 hPa 0,0 l/m 2,1 km/h (1 Bft) O-NO 67 14,1 C 20,9 C 2,7 km/h (1 Bft)
19.06.2013 00:05 20,8 C 66 % 1020,8 hPa 0,0 l/m 3,4 km/h (1 Bft) O-NO 67 14,2 C 20,9 C 4,3 km/h (1 Bft)
19.06.2013 00:10 20,7 C 66 % 1020,8 hPa 0,0 l/m 2,9 km/h (1 Bft) O 90 14,1 C 20,7 C 3,1 km/h (1 Bft)
19.06.2013 00:15 20,3 C 66 % 1020,8 hPa 0,0 l/m 2,3 km/h (1 Bft) O 90 13,7 C 20,4 C 0,0 km/h (0 Bft)
19.06.2013 00:20 19,5 C 69 % 1020,8 hPa 0,0 l/m 1,3 km/h (1 Bft) S 180 13,7 C 20,1 C 4,3 km/h (1 Bft)
19.06.2013 00:25 19,3 C 70 % 1020,6 hPa 0,0 l/m 1,0 km/h (0 Bft) NO 45 13,7 C 19,8 C 2,1 km/h (1 Bft)
19.06.2013 00:30 19,4 C 70 % 1020,6 hPa 0,0 l/m 1,8 km/h (1 Bft) O 90 13,8 C 19,5 C 1,9 km/h (1 Bft)
19.06.2013 00:35 19,5 C 69 % 1020,6 hPa 0,0 l/m 1,1 km/h (1 Bft) O 90 13,7 C 19,4 C 0,0 km/h (0 Bft)
19.06.2013 00:40 19,1 C 69 % 1020,6 hPa 0,0 l/m 0,3 km/h (0 Bft) S-SW 202 13,3 C 19,2 C 0,0 km/h (0 Bft)
19.06.2013 00:45 18,7 C 74 % 1020,2 hPa 0,0 l/m 0,2 km/h (0 Bft) S-SW 202 14,0 C 19,0 C 1,9 km/h (1 Bft)
19.06.2013 00:50 18,8 C 73 % 1020,2 hPa 0,0 l/m 1,0 km/h (0 Bft) O-NO 67 13,9 C 18,8 C 1,9 km/h (1 Bft)
19.06.2013 00:55 19,1 C 71 % 1020,2 hPa 0,0 l/m 1,1 km/h (1 Bft) O-NO 67 13,7 C 18,8 C 1,6 km/h (1 Bft)
19.06.2013 01:00 19,4 C 70 % 1020,2 hPa 0,0 l/m 1,0 km/h (0 Bft) O 90 13,8 C 18,9 C 0,0 km/h (0 Bft)
19.06.2013 01:05 19,0 C 70 % 1020,3 hPa 0,0 l/m 0,6 km/h (0 Bft) S 180 13,4 C 19,0 C 0,0 km/h (0 Bft)
19.06.2013 01:10 18,6 C 73 % 1020,3 hPa 0,0 l/m 0,6 km/h (0 Bft) O 90 13,7 C 18,8 C 4,7 km/h (1 Bft)
19.06.2013 01:17 19,3 C 72 % 1020,3 hPa 0,0 l/m 2,3 km/h (1 Bft) O-SO 112 14,1 C 18,9 C 3,7 km/h (1 Bft)
19.06.2013 01:20 19,1 C 72 % 1020,3 hPa 0,0 l/m 3,2 km/h (1 Bft) O 90 13,9 C 19,1 C 6,0 km/h (2 Bft)
19.06.2013 01:25 19,1 C 71 % 1020,2 hPa 0,0 l/m 2,6 km/h (1 Bft) O 90 13,7 C 19,2 C 1,8 km/h (1 Bft)
19.06.2013 01:30 18,8 C 71 % 1020,2 hPa 0,0 l/m 1,8 km/h (1 Bft) O-NO 67 13,4 C 19,1 C 2,7 km/h (1 Bft)
19.06.2013 01:35 18,7 C 70 % 1020,2 hPa 0,0 l/m 1,0 km/h (0 Bft) O-NO 67 13,1 C 19,0 C 0,0 km/h (0 Bft)
19.06.2013 01:40 18,8 C 70 % 1020,2 hPa 0,0 l/m 0,6 km/h (0 Bft) O 90 13,2 C 18,9 C 1,6 km/h (1 Bft)
19.06.2013 01:45 18,7 C 70 % 1019,9 hPa 0,0 l/m 0,5 km/h (0 Bft) O 90 13,1 C 18,8 C 0,0 km/h (0 Bft)
19.06.2013 01:50 18,4 C 70 % 1019,9 hPa 0,0 l/m 0,5 km/h (0 Bft) O 90 12,8 C 18,6 C 0,0 km/h (0 Bft)
19.06.2013 01:55 18,3 C 72 % 1019,9 hPa 0,0 l/m 0,5 km/h (0 Bft) NO 45 13,2 C 18,4 C 2,1 km/h (1 Bft)
19.06.2013 02:00 18,0 C 73 % 1019,9 hPa 0,0 l/m 0,2 km/h (0 Bft) O 90 13,1 C 18,1 C 1,8 km/h (1 Bft)
19.06.2013 02:05 18,1 C 72 % 1020,0 hPa 0,0 l/m 0,2 km/h (0 Bft) O 90 13,0 C 18,0 C 0,0 km/h (0 Bft)
19.06.2013 02:11 18,0 C 73 % 1020,0 hPa 0,0 l/m 0,2 km/h (0 Bft) NO 45 13,1 C 17,8 C 0,0 km/h (0 Bft)
19.06.2013 02:15 17,7 C 73 % 1020,0 hPa 0,0 l/m 0,0 km/h (0 Bft) N-NO 22 12,8 C 17,8 C 0,0 km/h (0 Bft)
19.06.2013 02:20 17,6 C 73 % 1020,0 hPa 0,0 l/m 0,2 km/h (0 Bft) O-SO 112 12,7 C 17,6 C 0,0 km/h (0 Bft)
19.06.2013 02:25 17,4 C 74 % 1020,4 hPa 0,0 l/m 0,3 km/h (0 Bft) SW 225 12,7 C 17,4 C 2,4 km/h (1 Bft)
19.06.2013 02:30 17,2 C 74 % 1020,4 hPa 0,0 l/m 0,2 km/h (0 Bft) O 90 12,5 C 17,2 C 0,0 km/h (0 Bft)
19.06.2013 02:35 17,1 C 74 % 1020,4 hPa 0,0 l/m 0,3 km/h (0 Bft) O 90 12,4 C 17,0 C 0,0 km/h (0 Bft)
19.06.2013 02:40 17,1 C 74 % 1020,4 hPa 0,0 l/m 0,2 km/h (0 Bft) NO 45 12,4 C 17,0 C 0,0 km/h (0 Bft)
19.06.2013 02:45 16,9 C 74 % 1019,8 hPa 0,0 l/m 0,2 km/h (0 Bft) S-SO 157 12,2 C 17,0 C 0,0 km/h (0 Bft)
19.06.2013 02:50 16,9 C 76 % 1019,8 hPa 0,0 l/m 0,3 km/h (0 Bft) NO 45 12,6 C 16,9 C 2,9 km/h (1 Bft)
19.06.2013 02:55 16,8 C 75 % 1019,8 hPa 0,0 l/m 0,5 km/h (0 Bft) SO 135 12,3 C 17,0 C 0,0 km/h (0 Bft)
19.06.2013 03:00 16,8 C 75 % 1019,8 hPa 0,0 l/m 0,2 km/h (0 Bft) O 90 12,3 C 16,9 C 0,0 km/h (0 Bft)
19.06.2013 03:05 16,9 C 75 % 1019,4 hPa 0,0 l/m 0,0 km/h (0 Bft) S 180 12,4 C 17,0 C 0,0 km/h (0 Bft)
19.06.2013 03:10 16,9 C 74 % 1019,4 hPa 0,0 l/m 0,0 km/h (0 Bft) NO 45 12,2 C 17,0 C 0,0 km/h (0 Bft)
19.06.2013 03:15 16,6 C 75 % 1019,4 hPa 0,0 l/m 0,0 km/h (0 Bft) W-NW 292 12,1 C 17,0 C 0,0 km/h (0 Bft)
19.06.2013 03:20 16,6 C 75 % 1019,4 hPa 0,0 l/m 0,2 km/h (0 Bft) NO 45 12,1 C 16,7 C 0,0 km/h (0 Bft)
19.06.2013 03:25 16,7 C 75 % 1019,2 hPa 0,0 l/m 0,2 km/h (0 Bft) O-NO 67 12,2 C 16,6 C 1,9 km/h (1 Bft)
19.06.2013 03:30 17,0 C 74 % 1019,2 hPa 0,0 l/m 0,5 km/h (0 Bft) O 90 12,3 C 16,8 C 2,1 km/h (1 Bft)
19.06.2013 03:35 17,1 C 73 % 1019,2 hPa 0,0 l/m 0,5 km/h (0 Bft) O 90 12,2 C 17,0 C 0,0 km/h (0 Bft)
19.06.2013 03:40 16,8 C 73 % 1019,2 hPa 0,0 l/m 0,2 km/h (0 Bft) S 180 11,9 C 17,1 C 1,6 km/h (1 Bft)
19.06.2013 03:45 16,6 C 74 % 1019,2 hPa 0,0 l/m 0,0 km/h (0 Bft) S-SO 157 11,9 C 17,1 C 0,0 km/h (0 Bft)
19.06.2013 03:50 16,7 C 74 % 1019,2 hPa 0,0 l/m 0,2 km/h (0 Bft) O-NO 67 12,0 C 16,9 C 0,0 km/h (0 Bft)
19.06.2013 03:55 16,9 C 73 % 1019,2 hPa 0,0 l/m 0,2 km/h (0 Bft) O 90 12,0 C 17,0 C 0,0 km/h (0 Bft)
19.06.2013 04:00 16,7 C 73 % 1019,2 hPa 0,0 l/m 0,2 km/h (0 Bft) W 270 11,8 C 17,1 C 0,0 km/h (0 Bft)
19.06.2013 04:05 16,5 C 73 % 1018,8 hPa 0,0 l/m 0,0 km/h (0 Bft) W-SW 247 11,6 C 17,0 C 0,0 km/h (0 Bft)
19.06.2013 04:10 16,5 C 75 % 1018,8 hPa 0,0 l/m 0,0 km/h (0 Bft) N-NO 22 12,1 C 16,7 C 0,0 km/h (0 Bft)
19.06.2013 04:15 16,8 C 76 % 1018,8 hPa 0,0 l/m 0,8 km/h (0 Bft) N-NW 337 12,5 C 16,8 C 5,5 km/h (1 Bft)
19.06.2013 04:20 16,7 C 76 % 1018,8 hPa 0,0 l/m 2,4 km/h (1 Bft) NW 315 12,4 C 17,2 C 7,1 km/h (2 Bft)
19.06.2013 04:25 16,7 C 75 % 1018,9 hPa 0,0 l/m 2,3 km/h (1 Bft) NO 45 12,2 C 17,2 C 0,0 km/h (0 Bft)
19.06.2013 04:30 16,6 C 74 % 1018,9 hPa 0,0 l/m 0,6 km/h (0 Bft) S 180 11,9 C 17,1 C 2,1 km/h (1 Bft)
19.06.2013 04:35 16,6 C 75 % 1018,9 hPa 0,0 l/m 1,0 km/h (0 Bft) O-SO 112 12,1 C 16,9 C 2,6 km/h (1 Bft)
19.06.2013 04:40 16,2 C 75 % 1018,9 hPa 0,0 l/m 1,4 km/h (1 Bft) O 90 11,8 C 16,6 C 3,1 km/h (1 Bft)
19.06.2013 04:45 16,3 C 75 % 1019,1 hPa 0,0 l/m 1,0 km/h (0 Bft) O 90 11,9 C 16,5 C 0,0 km/h (0 Bft)
19.06.2013 04:50 16,9 C 75 % 1019,1 hPa 0,0 l/m 1,3 km/h (1 Bft) N-NO 22 12,4 C 16,3 C 2,4 km/h (1 Bft)
19.06.2013 04:55 16,9 C 75 % 1019,1 hPa 0,0 l/m 1,9 km/h (1 Bft) O-NO 67 12,4 C 16,5 C 2,3 km/h (1 Bft)
19.06.2013 05:00 16,3 C 74 % 1019,1 hPa 0,0 l/m 1,8 km/h (1 Bft) S-SW 202 11,7 C 16,5 C 0,0 km/h (0 Bft)
19.06.2013 05:05 15,9 C 77 % 1018,8 hPa 0,0 l/m 1,0 km/h (0 Bft) NO 45 11,9 C 16,3 C 2,1 km/h (1 Bft)
19.06.2013 05:10 16,2 C 76 % 1018,8 hPa 0,0 l/m 1,0 km/h (0 Bft) O-NO 67 12,0 C 16,0 C 2,9 km/h (1 Bft)
19.06.2013 05:15 16,7 C 75 % 1018,8 hPa 0,0 l/m 1,3 km/h (1 Bft) NO 45 12,2 C 16,1 C 0,0 km/h (0 Bft)
19.06.2013 05:20 15,9 C 75 % 1018,8 hPa 0,0 l/m 0,5 km/h (0 Bft) O-NO 67 11,5 C 16,2 C 0,0 km/h (0 Bft)
19.06.2013 05:25 15,9 C 75 % 1018,4 hPa 0,0 l/m 0,0 km/h (0 Bft) O-NO 67 11,5 C 16,1 C 0,0 km/h (0 Bft)
19.06.2013 05:30 15,8 C 75 % 1018,4 hPa 0,0 l/m 0,0 km/h (0 Bft) N 360 11,4 C 16,1 C 0,0 km/h (0 Bft)
19.06.2013 05:35 15,8 C 76 % 1018,4 hPa 0,0 l/m 0,0 km/h (0 Bft) O 90 11,6 C 16,1 C 0,0 km/h (0 Bft)
19.06.2013 05:40 15,9 C 75 % 1018,4 hPa 0,0 l/m 0,2 km/h (0 Bft) S 180 11,5 C 16,2 C 1,6 km/h (1 Bft)
19.06.2013 05:45 16,6 C 74 % 1018,6 hPa 0,0 l/m 0,5 km/h (0 Bft) SO 135 11,9 C 16,6 C 0,0 km/h (0 Bft)
19.06.2013 05:50 17,0 C 73 % 1018,6 hPa 0,0 l/m 0,6 km/h (0 Bft) O-NO 67 12,1 C 17,7 C 0,0 km/h (0 Bft)
19.06.2013 05:55 17,0 C 72 % 1018,6 hPa 0,0 l/m 0,3 km/h (0 Bft) W-SW 247 11,9 C 17,8 C 0,0 km/h (0 Bft)
19.06.2013 06:00 17,7 C 72 % 1018,6 hPa 0,0 l/m 0,6 km/h (0 Bft) N-NO 22 12,6 C 18,5 C 0,0 km/h (0 Bft)
19.06.2013 06:05 18,1 C 71 % 1018,6 hPa 0,0 l/m 1,1 km/h (1 Bft) O-NO 67 12,8 C 19,4 C 1,9 km/h (1 Bft)
19.06.2013 06:10 19,7 C 67 % 1018,6 hPa 0,0 l/m 2,4 km/h (1 Bft) S 180 13,4 C 20,4 C 3,5 km/h (1 Bft)
19.06.2013 06:15 20,4 C 64 % 1018,6 hPa 0,0 l/m 2,6 km/h (1 Bft) N-NO 22 13,4 C 21,0 C 3,5 km/h (1 Bft)
19.06.2013 06:20 21,3 C 63 % 1018,6 hPa 0,0 l/m 1,8 km/h (1 Bft) NO 45 14,0 C 21,8 C 1,8 km/h (1 Bft)
19.06.2013 06:25 21,3 C 60 % 1018,4 hPa 0,0 l/m 1,4 km/h (1 Bft) N-NO 22 13,2 C 22,2 C 2,9 km/h (1 Bft)
19.06.2013 06:30 21,6 C 59 % 1018,4 hPa 0,0 l/m 1,6 km/h (1 Bft) N-NO 22 13,2 C 22,5 C 1,8 km/h (1 Bft)
19.06.2013 06:35 22,7 C 59 % 1018,4 hPa 0,0 l/m 1,9 km/h (1 Bft) NO 45 14,3 C 22,9 C 0,0 km/h (0 Bft)
19.06.2013 06:40 23,6 C 56 % 1018,4 hPa 0,0 l/m 0,8 km/h (0 Bft) NO 45 14,3 C 24,0 C 1,8 km/h (1 Bft)
19.06.2013 06:45 24,0 C 56 % 1018,2 hPa 0,0 l/m 0,5 km/h (0 Bft) O 90 14,7 C 24,3 C 0,0 km/h (0 Bft)
19.06.2013 06:50 25,1 C 54 % 1018,2 hPa 0,0 l/m 0,6 km/h (0 Bft) NO 45 15,1 C 25,2 C 0,0 km/h (0 Bft)
19.06.2013 06:55 25,9 C 54 % 1018,2 hPa 0,0 l/m 0,3 km/h (0 Bft) S 180 15,9 C 25,9 C 0,0 km/h (0 Bft)
19.06.2013 07:00 26,3 C 49 % 1018,2 hPa 0,0 l/m 0,0 km/h (0 Bft) SW 225 14,7 C 27,0 C 0,0 km/h (0 Bft)
19.06.2013 07:05 26,1 C 49 % 1018,4 hPa 0,0 l/m 0,0 km/h (0 Bft) O 90 14,5 C 27,5 C 0,0 km/h (0 Bft)
19.06.2013 07:11 27,1 C 49 % 1018,4 hPa 0,0 l/m 0,2 km/h (0 Bft) O 90 15,4 C 27,8 C 0,0 km/h (0 Bft)
19.06.2013 07:15 27,4 C 46 % 1018,4 hPa 0,0 l/m 0,3 km/h (0 Bft) N-NO 22 14,7 C 28,3 C 1,9 km/h (1 Bft)
19.06.2013 07:20 28,6 C 47 % 1018,4 hPa 0,0 l/m 0,5 km/h (0 Bft) O-NO 67 16,2 C 28,7 C 2,1 km/h (1 Bft)
19.06.2013 07:25 28,4 C 46 % 1018,4 hPa 0,0 l/m 0,5 km/h (0 Bft) NO 45 15,6 C 29,1 C 3,1 km/h (1 Bft)
19.06.2013 07:30 28,3 C 45 % 1018,4 hPa 0,0 l/m 0,8 km/h (0 Bft) S 180 15,2 C 29,3 C 2,1 km/h (1 Bft)
19.06.2013 07:35 28,9 C 43 % 1018,4 hPa 0,0 l/m 1,0 km/h (0 Bft) W 270 15,0 C 29,6 C 0,0 km/h (0 Bft)
19.06.2013 07:40 29,5 C 44 % 1018,4 hPa 0,0 l/m 0,5 km/h (0 Bft) W-NW 292 15,9 C 30,1 C 0,0 km/h (0 Bft)
19.06.2013 07:45 29,8 C 42 % 1018,2 hPa 0,0 l/m 0,5 km/h (0 Bft) NO 45 15,5 C 30,4 C 0,0 km/h (0 Bft)
19.06.2013 07:50 30,5 C 42 % 1018,2 hPa 0,0 l/m 0,5 km/h (0 Bft) W 270 16,1 C 31,1 C 0,0 km/h (0 Bft)
19.06.2013 07:55 30,4 C 39 % 1018,2 hPa 0,0 l/m 0,2 km/h (0 Bft) NO 45 14,9 C 31,5 C 1,6 km/h (1 Bft)
19.06.2013 08:00 30,7 C 41 % 1018,2 hPa 0,0 l/m 0,2 km/h (0 Bft) O 90 15,9 C 31,8 C 0,0 km/h (0 Bft)
19.06.2013 08:05 31,1 C 41 % 1018,3 hPa 0,0 l/m 0,2 km/h (0 Bft) W-NW 292 16,3 C 32,2 C 0,0 km/h (0 Bft)
19.06.2013 08:11 31,2 C 39 % 1018,3 hPa 0,0 l/m 0,2 km/h (0 Bft) O 90 15,6 C 32,5 C 0,0 km/h (0 Bft)
19.06.2013 08:15 31,3 C 39 % 1018,3 hPa 0,0 l/m 0,5 km/h (0 Bft) O-NO 67 15,7 C 32,8 C 0,0 km/h (0 Bft)
19.06.2013 08:20 31,5 C 37 % 1018,3 hPa 0,0 l/m 0,5 km/h (0 Bft) W-NW 292 15,0 C 32,9 C 0,0 km/h (0 Bft)
19.06.2013 08:25 31,4 C 38 % 1018,1 hPa 0,0 l/m 1,0 km/h (0 Bft) O 90 15,3 C 32,9 C 0,0 km/h (0 Bft)
19.06.2013 08:30 31,9 C 40 % 1018,1 hPa 0,0 l/m 0,6 km/h (0 Bft) W 270 16,6 C 33,3 C 0,0 km/h (0 Bft)
19.06.2013 08:35 32,1 C 37 % 1018,1 hPa 0,0 l/m 0,2 km/h (0 Bft) W-NW 292 15,5 C 33,8 C 0,0 km/h (0 Bft)
19.06.2013 08:40 32,4 C 38 % 1018,1 hPa 0,0 l/m 0,2 km/h (0 Bft) O-NO 67 16,2 C 34,1 C 0,0 km/h (0 Bft)
19.06.2013 08:45 32,4 C 37 % 1018,3 hPa 0,0 l/m 0,3 km/h (0 Bft) W-SW 247 15,8 C 34,3 C 0,0 km/h (0 Bft)
19.06.2013 08:50 32,8 C 38 % 1018,3 hPa 0,0 l/m 0,5 km/h (0 Bft) NO 45 16,6 C 34,8 C 0,0 km/h (0 Bft)
19.06.2013 08:55 32,7 C 37 % 1018,3 hPa 0,0 l/m 0,6 km/h (0 Bft) W-SW 247 16,1 C 34,7 C 0,0 km/h (0 Bft)
19.06.2013 09:00 32,6 C 37 % 1018,3 hPa 0,0 l/m 0,5 km/h (0 Bft) SO 135 16,0 C 35,1 C 0,0 km/h (0 Bft)
19.06.2013 09:05 32,4 C 36 % 1018,5 hPa 0,0 l/m 0,3 km/h (0 Bft) S-SW 202 15,4 C 35,5 C 0,0 km/h (0 Bft)
19.06.2013 09:10 32,6 C 35 % 1018,5 hPa 0,0 l/m 0,8 km/h (0 Bft) S 180 15,1 C 35,7 C 2,6 km/h (1 Bft)
19.06.2013 09:15 32,1 C 34 % 1018,5 hPa 0,0 l/m 1,1 km/h (1 Bft) NW 315 14,2 C 35,5 C 2,7 km/h (1 Bft)
19.06.2013 09:20 32,5 C 33 % 1018,5 hPa 0,0 l/m 1,3 km/h (1 Bft) NO 45 14,1 C 35,3 C 3,2 km/h (1 Bft)
19.06.2013 09:25 32,5 C 33 % 1019,0 hPa 0,0 l/m 1,4 km/h (1 Bft) O-NO 67 14,1 C 35,2 C 4,8 km/h (1 Bft)
19.06.2013 09:30 33,0 C 31 % 1019,0 hPa 0,0 l/m 1,1 km/h (1 Bft) SO 135 13,6 C 35,6 C 0,0 km/h (0 Bft)
19.06.2013 09:35 32,9 C 29 % 1019,0 hPa 0,0 l/m 1,6 km/h (1 Bft) S-SW 202 12,5 C 35,7 C 4,3 km/h (1 Bft)
19.06.2013 09:40 32,9 C 31 % 1019,0 hPa 0,0 l/m 1,9 km/h (1 Bft) W-SW 247 13,5 C 35,6 C 2,3 km/h (1 Bft)
19.06.2013 09:45 33,3 C 30 % 1019,2 hPa 0,0 l/m 1,6 km/h (1 Bft) W-SW 247 13,3 C 35,9 C 1,6 km/h (1 Bft)
19.06.2013 09:50 32,9 C 30 % 1019,2 hPa 0,0 l/m 1,8 km/h (1 Bft) SW 225 13,0 C 35,6 C 7,7 km/h (2 Bft)
19.06.2013 09:55 32,9 C 28 % 1019,2 hPa 0,0 l/m 1,9 km/h (1 Bft) O-NO 67 11,9 C 35,9 C 4,5 km/h (1 Bft)
19.06.2013 10:00 33,5 C 28 % 1019,2 hPa 0,0 l/m 1,4 km/h (1 Bft) S 180 12,5 C 36,0 C 5,0 km/h (1 Bft)
19.06.2013 10:05 33,1 C 28 % 1019,2 hPa 0,0 l/m 1,6 km/h (1 Bft) W 270 12,1 C 36,3 C 2,7 km/h (1 Bft)
19.06.2013 10:11 33,5 C 30 % 1019,2 hPa 0,0 l/m 2,4 km/h (1 Bft) W-SW 247 13,5 C 35,9 C 3,2 km/h (1 Bft)
19.06.2013 10:15 33,7 C 27 % 1019,2 hPa 0,0 l/m 2,6 km/h (1 Bft) W-SW 247 12,1 C 36,1 C 5,0 km/h (1 Bft)
19.06.2013 10:20 33,2 C 25 % 1019,2 hPa 0,0 l/m 3,2 km/h (1 Bft) S 180 10,5 C 35,9 C 9,0 km/h (2 Bft)
19.06.2013 10:25 33,6 C 22 % 1019,2 hPa 0,0 l/m 4,5 km/h (1 Bft) S 180 8,9 C 35,5 C 8,5 km/h (2 Bft)
19.06.2013 10:30 33,4 C 22 % 1019,2 hPa 0,0 l/m 4,0 km/h (1 Bft) NW 315 8,7 C 35,5 C 9,5 km/h (2 Bft)
19.06.2013 10:35 34,0 C 25 % 1019,2 hPa 0,0 l/m 3,1 km/h (1 Bft) SO 135 11,2 C 35,9 C 4,2 km/h (1 Bft)
19.06.2013 10:40 33,3 C 23 % 1019,2 hPa 0,0 l/m 2,9 km/h (1 Bft) SO 135 9,3 C 36,2 C 13,0 km/h (3 Bft)
19.06.2013 10:45 33,5 C 26 % 1019,4 hPa 0,0 l/m 2,6 km/h (1 Bft) W-SW 247 11,3 C 36,4 C 3,2 km/h (1 Bft)
19.06.2013 10:50 34,3 C 22 % 1019,4 hPa 0,0 l/m 1,4 km/h (1 Bft) NO 45 9,5 C 36,8 C 1,8 km/h (1 Bft)
19.06.2013 10:55 34,1 C 24 % 1019,4 hPa 0,0 l/m 1,3 km/h (1 Bft) W-SW 247 10,6 C 37,2 C 1,6 km/h (1 Bft)
19.06.2013 11:00 33,4 C 22 % 1019,4 hPa 0,0 l/m 1,9 km/h (1 Bft) N-NW 337 8,7 C 36,9 C 2,9 km/h (1 Bft)
19.06.2013 11:05 34,1 C 20 % 1019,6 hPa 0,0 l/m 2,7 km/h (1 Bft) S-SO 157 7,9 C 36,8 C 5,8 km/h (2 Bft)
19.06.2013 11:11 34,4 C 20 % 1019,6 hPa 0,0 l/m 3,9 km/h (1 Bft) S-SW 202 8,2 C 36,4 C 5,3 km/h (1 Bft)
19.06.2013 11:15 34,5 C 26 % 1019,6 hPa 0,0 l/m 4,5 km/h (1 Bft) O-SO 112 12,2 C 36,2 C 6,9 km/h (2 Bft)
19.06.2013 11:20 34,5 C 25 % 1019,6 hPa 0,0 l/m 3,9 km/h (1 Bft) O-SO 112 11,6 C 35,8 C 4,0 km/h (1 Bft)
19.06.2013 11:25 34,4 C 25 % 1019,6 hPa 0,0 l/m 3,1 km/h (1 Bft) W-SW 247 11,5 C 36,1 C 3,7 km/h (1 Bft)
19.06.2013 11:30 35,0 C 23 % 1019,6 hPa 0,0 l/m 2,9 km/h (1 Bft) S 180 10,7 C 35,9 C 4,7 km/h (1 Bft)
19.06.2013 11:35 34,9 C 24 % 1019,6 hPa 0,0 l/m 3,4 km/h (1 Bft) W-SW 247 11,3 C 35,8 C 1,8 km/h (1 Bft)
19.06.2013 11:40 34,3 C 25 % 1019,6 hPa 0,0 l/m 4,7 km/h (1 Bft) W-SW 247 11,4 C 35,4 C 11,6 km/h (2 Bft)
19.06.2013 11:45 34,3 C 24 % 1019,6 hPa 0,0 l/m 5,3 km/h (1 Bft) W 270 10,8 C 34,9 C 5,0 km/h (1 Bft)
19.06.2013 11:50 34,0 C 27 % 1019,6 hPa 0,0 l/m 5,6 km/h (1 Bft) W-SW 247 12,3 C 34,7 C 6,9 km/h (2 Bft)
19.06.2013 11:55 34,1 C 23 % 1019,6 hPa 0,0 l/m 5,0 km/h (1 Bft) SW 225 10,0 C 34,5 C 4,5 km/h (1 Bft)
19.06.2013 12:00 34,6 C 24 % 1019,6 hPa 0,0 l/m 4,5 km/h (1 Bft) S-SW 202 11,0 C 34,7 C 6,6 km/h (2 Bft)
19.06.2013 12:05 34,9 C 24 % 1019,7 hPa 0,0 l/m 3,4 km/h (1 Bft) S 180 11,3 C 35,1 C 5,0 km/h (1 Bft)
19.06.2013 12:10 34,5 C 23 % 1019,7 hPa 0,0 l/m 3,2 km/h (1 Bft) NW 315 10,3 C 35,4 C 4,5 km/h (1 Bft)
19.06.2013 12:15 34,0 C 22 % 1019,7 hPa 0,0 l/m 3,7 km/h (1 Bft) S 180 9,2 C 35,4 C 6,3 km/h (2 Bft)
19.06.2013 12:20 34,2 C 22 % 1019,7 hPa 0,0 l/m 4,0 km/h (1 Bft) W-SW 247 9,4 C 35,5 C 7,6 km/h (2 Bft)
19.06.2013 12:25 33,5 C 22 % 1019,8 hPa 0,0 l/m 3,9 km/h (1 Bft) W-NW 292 8,8 C 35,4 C 2,1 km/h (1 Bft)
19.06.2013 12:30 34,3 C 23 % 1019,8 hPa 0,0 l/m 2,6 km/h (1 Bft) W-SW 247 10,2 C 35,3 C 4,0 km/h (1 Bft)
19.06.2013 12:35 32,3 C 25 % 1019,8 hPa 0,0 l/m 2,4 km/h (1 Bft) W 270 9,7 C 35,3 C 4,2 km/h (1 Bft)
19.06.2013 12:40 33,4 C 26 % 1019,8 hPa 0,0 l/m 2,9 km/h (1 Bft) S-SW 202 11,2 C 34,4 C 8,5 km/h (2 Bft)
19.06.2013 12:45 32,8 C 24 % 1019,7 hPa 0,0 l/m 2,7 km/h (1 Bft) NW 315 9,5 C 34,7 C 1,8 km/h (1 Bft)
19.06.2013 12:50 34,4 C 27 % 1019,7 hPa 0,0 l/m 2,3 km/h (1 Bft) S 180 12,7 C 35,5 C 4,5 km/h (1 Bft)
19.06.2013 12:55 34,3 C 23 % 1019,7 hPa 0,0 l/m 1,9 km/h (1 Bft) S 180 10,2 C 36,0 C 5,8 km/h (2 Bft)
19.06.2013 13:00 34,0 C 22 % 1019,7 hPa 0,0 l/m 3,2 km/h (1 Bft) W 270 9,2 C 36,4 C 4,5 km/h (1 Bft)
19.06.2013 13:05 33,0 C 22 % 1019,8 hPa 0,0 l/m 2,1 km/h (1 Bft) N-NO 22 8,4 C 36,3 C 0,0 km/h (0 Bft)
19.06.2013 13:11 33,4 C 27 % 1019,8 hPa 0,0 l/m 2,1 km/h (1 Bft) SO 135 11,8 C 35,8 C 2,6 km/h (1 Bft)
19.06.2013 13:15 32,4 C 26 % 1019,8 hPa 0,0 l/m 2,1 km/h (1 Bft) S-SO 157 10,4 C 35,7 C 0,0 km/h (0 Bft)
19.06.2013 13:20 32,0 C 30 % 1019,8 hPa 0,0 l/m 1,4 km/h (1 Bft) W 270 12,2 C 35,3 C 3,1 km/h (1 Bft)
19.06.2013 13:25 32,7 C 31 % 1019,6 hPa 0,0 l/m 1,3 km/h (1 Bft) W-SW 247 13,3 C 35,1 C 2,4 km/h (1 Bft)
19.06.2013 13:30 33,8 C 29 % 1019,6 hPa 0,0 l/m 1,1 km/h (1 Bft) O-SO 112 13,2 C 35,8 C 1,6 km/h (1 Bft)
19.06.2013 13:35 32,7 C 32 % 1019,6 hPa 0,0 l/m 1,1 km/h (1 Bft) S 180 13,8 C 36,0 C 2,7 km/h (1 Bft)
19.06.2013 13:40 33,9 C 26 % 1019,6 hPa 0,0 l/m 1,1 km/h (1 Bft) W-NW 292 11,7 C 36,2 C 3,7 km/h (1 Bft)
19.06.2013 13:45 32,2 C 29 % 1019,8 hPa 0,0 l/m 2,6 km/h (1 Bft) N 360 11,9 C 36,4 C 5,3 km/h (1 Bft)
19.06.2013 13:50 32,2 C 32 % 1019,8 hPa 0,0 l/m 2,1 km/h (1 Bft) S-SO 157 13,4 C 35,9 C 0,0 km/h (0 Bft)
19.06.2013 13:55 30,9 C 35 % 1019,8 hPa 0,0 l/m 0,8 km/h (0 Bft) O-SO 112 13,6 C 35,7 C 2,1 km/h (1 Bft)
19.06.2013 14:00 31,5 C 37 % 1019,8 hPa 0,0 l/m 0,5 km/h (0 Bft) SO 135 15,0 C 35,3 C 0,0 km/h (0 Bft)
19.06.2013 14:05 32,4 C 33 % 1019,6 hPa 0,0 l/m 0,6 km/h (0 Bft) S-SW 202 14,0 C 35,6 C 1,6 km/h (1 Bft)
19.06.2013 14:10 31,4 C 32 % 1019,6 hPa 0,0 l/m 0,8 km/h (0 Bft) NO 45 12,7 C 34,9 C 2,9 km/h (1 Bft)
19.06.2013 14:15 32,0 C 34 % 1019,6 hPa 0,0 l/m 0,8 km/h (0 Bft) O-NO 67 14,1 C 35,1 C 0,0 km/h (0 Bft)
19.06.2013 14:20 33,8 C 27 % 1019,6 hPa 0,0 l/m 1,3 km/h (1 Bft) W 270 12,2 C 36,6 C 5,5 km/h (1 Bft)
19.06.2013 14:25 34,1 C 23 % 1019,4 hPa 0,0 l/m 1,9 km/h (1 Bft) W-NW 292 10,0 C 36,7 C 0,0 km/h (0 Bft)
19.06.2013 14:30 34,1 C 23 % 1019,4 hPa 0,0 l/m 2,1 km/h (1 Bft) N-NW 337 10,0 C 37,5 C 2,7 km/h (1 Bft)
19.06.2013 14:35 34,6 C 23 % 1019,4 hPa 0,0 l/m 1,9 km/h (1 Bft) W 270 10,4 C 37,6 C 3,4 km/h (1 Bft)
19.06.2013 14:40 32,6 C 28 % 1019,4 hPa 0,0 l/m 2,4 km/h (1 Bft) NO 45 11,7 C 37,1 C 1,6 km/h (1 Bft)
19.06.2013 14:45 31,7 C 30 % 1019,4 hPa 0,0 l/m 1,4 km/h (1 Bft) W 270 12,0 C 36,2 C 0,0 km/h (0 Bft)
19.06.2013 14:50 33,8 C 34 % 1019,4 hPa 0,0 l/m 0,6 km/h (0 Bft) W-SW 247 15,7 C 36,6 C 3,1 km/h (1 Bft)
19.06.2013 14:55 34,1 C 24 % 1019,4 hPa 0,0 l/m 1,1 km/h (1 Bft) W-SW 247 10,6 C 37,5 C 6,0 km/h (2 Bft)
19.06.2013 15:01 34,8 C 25 % 1019,4 hPa 0,0 l/m 2,7 km/h (1 Bft) W 270 11,8 C 37,8 C 5,1 km/h (1 Bft)
19.06.2013 15:05 34,3 C 20 % 1019,2 hPa 0,0 l/m 2,7 km/h (1 Bft) W-NW 292 8,1 C 38,1 C 3,7 km/h (1 Bft)
19.06.2013 15:10 33,4 C 22 % 1019,2 hPa 0,0 l/m 3,2 km/h (1 Bft) N-NW 337 8,7 C 37,3 C 3,2 km/h (1 Bft)
19.06.2013 15:15 34,1 C 21 % 1019,2 hPa 0,0 l/m 3,4 km/h (1 Bft) SO 135 8,6 C 37,1 C 2,3 km/h (1 Bft)
19.06.2013 15:20 34,2 C 28 % 1019,2 hPa 0,0 l/m 1,8 km/h (1 Bft) N-NW 337 13,0 C 37,3 C 3,1 km/h (1 Bft)
19.06.2013 15:25 34,6 C 23 % 1019,1 hPa 0,0 l/m 1,4 km/h (1 Bft) W-NW 292 10,4 C 37,6 C 2,3 km/h (1 Bft)
19.06.2013 15:30 34,9 C 20 % 1019,1 hPa 0,0 l/m 2,4 km/h (1 Bft) S 180 8,6 C 38,2 C 4,0 km/h (1 Bft)
19.06.2013 15:35 34,9 C 21 % 1019,1 hPa 0,0 l/m 2,6 km/h (1 Bft) S 180 9,3 C 38,2 C 2,9 km/h (1 Bft)
19.06.2013 15:40 34,5 C 20 % 1019,1 hPa 0,0 l/m 2,6 km/h (1 Bft) O-NO 67 8,2 C 38,5 C 2,3 km/h (1 Bft)
19.06.2013 15:45 34,2 C 20 % 1018,8 hPa 0,0 l/m 2,1 km/h (1 Bft) N-NW 337 8,0 C 39,0 C 2,7 km/h (1 Bft)
19.06.2013 15:50 34,4 C 21 % 1018,8 hPa 0,0 l/m 2,6 km/h (1 Bft) W 270 8,9 C 39,3 C 3,5 km/h (1 Bft)
19.06.2013 15:55 34,6 C 21 % 1018,8 hPa 0,0 l/m 2,3 km/h (1 Bft) S 180 9,0 C 39,3 C 1,9 km/h (1 Bft)
19.06.2013 16:00 34,5 C 24 % 1018,8 hPa 0,0 l/m 2,9 km/h (1 Bft) S 180 11,0 C 39,3 C 6,1 km/h (2 Bft)
19.06.2013 16:05 33,4 C 25 % 1018,8 hPa 0,0 l/m 3,2 km/h (1 Bft) S 180 10,7 C 38,1 C 4,8 km/h (1 Bft)
19.06.2013 16:10 34,3 C 29 % 1018,8 hPa 0,0 l/m 3,4 km/h (1 Bft) S-SO 157 13,7 C 37,3 C 4,2 km/h (1 Bft)
19.06.2013 16:15 35,0 C 24 % 1018,8 hPa 0,0 l/m 2,9 km/h (1 Bft) W-NW 292 11,4 C 37,6 C 2,1 km/h (1 Bft)
19.06.2013 16:20 34,9 C 23 % 1018,8 hPa 0,0 l/m 2,3 km/h (1 Bft) S-SW 202 10,7 C 38,2 C 2,4 km/h (1 Bft)
19.06.2013 16:25 34,4 C 22 % 1018,8 hPa 0,0 l/m 1,9 km/h (1 Bft) S-SW 202 9,6 C 38,6 C 1,8 km/h (1 Bft)
19.06.2013 16:30 33,0 C 24 % 1018,8 hPa 0,0 l/m 2,7 km/h (1 Bft) S-SW 202 9,7 C 37,6 C 4,7 km/h (1 Bft)
19.06.2013 16:35 32,5 C 27 % 1018,8 hPa 0,0 l/m 2,7 km/h (1 Bft) S-SO 157 11,1 C 36,7 C 2,6 km/h (1 Bft)
19.06.2013 16:40 32,4 C 32 % 1018,8 hPa 0,0 l/m 1,8 km/h (1 Bft) SW 225 13,6 C 36,6 C 2,7 km/h (1 Bft)
19.06.2013 16:45 33,2 C 25 % 1018,7 hPa 0,0 l/m 1,8 km/h (1 Bft) S 180 10,5 C 37,3 C 2,3 km/h (1 Bft)
19.06.2013 16:50 33,2 C 26 % 1018,7 hPa 0,0 l/m 2,3 km/h (1 Bft) W-SW 247 11,1 C 38,1 C 4,0 km/h (1 Bft)
19.06.2013 16:55 32,9 C 28 % 1018,7 hPa 0,0 l/m 2,7 km/h (1 Bft) W 270 11,9 C 38,2 C 2,9 km/h (1 Bft)
19.06.2013 17:00 32,3 C 32 % 1018,7 hPa 0,0 l/m 4,0 km/h (1 Bft) W-SW 247 13,5 C 37,8 C 4,2 km/h (1 Bft)
19.06.2013 17:05 32,1 C 34 % 1018,7 hPa 0,0 l/m 4,0 km/h (1 Bft) W 270 14,2 C 37,7 C 4,5 km/h (1 Bft)
19.06.2013 17:11 31,8 C 34 % 1018,7 hPa 0,0 l/m 4,7 km/h (1 Bft) W-SW 247 14,0 C 37,4 C 10,5 km/h (2 Bft)
19.06.2013 17:15 31,6 C 35 % 1018,7 hPa 0,0 l/m 5,3 km/h (1 Bft) W-SW 247 14,2 C 36,9 C 3,2 km/h (1 Bft)
19.06.2013 17:20 31,5 C 35 % 1018,7 hPa 0,0 l/m 5,1 km/h (1 Bft) W 270 14,2 C 36,8 C 7,1 km/h (2 Bft)
19.06.2013 17:25 31,4 C 34 % 1018,9 hPa 0,0 l/m 5,1 km/h (1 Bft) S-SW 202 13,6 C 36,7 C 10,1 km/h (2 Bft)
19.06.2013 17:30 31,1 C 38 % 1018,9 hPa 0,0 l/m 5,3 km/h (1 Bft) S-SW 202 15,1 C 36,3 C 4,5 km/h (1 Bft)
19.06.2013 17:35 30,9 C 36 % 1018,9 hPa 0,0 l/m 5,6 km/h (1 Bft) W 270 14,1 C 36,0 C 7,1 km/h (2 Bft)
19.06.2013 17:40 30,8 C 36 % 1018,9 hPa 0,0 l/m 5,3 km/h (1 Bft) O 90 14,0 C 36,0 C 7,7 km/h (2 Bft)
19.06.2013 17:45 30,9 C 37 % 1018,7 hPa 0,0 l/m 4,0 km/h (1 Bft) W 270 14,5 C 36,1 C 2,1 km/h (1 Bft)
19.06.2013 17:50 30,9 C 37 % 1018,7 hPa 0,0 l/m 4,0 km/h (1 Bft) W 270 14,5 C 36,3 C 5,8 km/h (2 Bft)
19.06.2013 17:55 30,9 C 36 % 1018,7 hPa 0,0 l/m 3,9 km/h (1 Bft) W-NW 292 14,1 C 36,5 C 7,9 km/h (2 Bft)
19.06.2013 18:00 30,9 C 36 % 1018,7 hPa 0,0 l/m 3,7 km/h (1 Bft) W-SW 247 14,1 C 36,5 C 4,3 km/h (1 Bft)
19.06.2013 18:05 30,9 C 37 % 1018,5 hPa 0,0 l/m 3,9 km/h (1 Bft) S 180 14,5 C 36,8 C 7,7 km/h (2 Bft)
19.06.2013 18:10 31,1 C 36 % 1018,5 hPa 0,0 l/m 4,3 km/h (1 Bft) S-SW 202 14,2 C 36,4 C 6,3 km/h (2 Bft)
19.06.2013 18:15 31,2 C 39 % 1018,5 hPa 0,0 l/m 4,7 km/h (1 Bft) S 180 15,6 C 36,5 C 7,6 km/h (2 Bft)
19.06.2013 18:20 31,1 C 39 % 1018,5 hPa 0,0 l/m 3,7 km/h (1 Bft) S 180 15,5 C 36,3 C 4,3 km/h (1 Bft)
19.06.2013 18:25 31,0 C 38 % 1018,5 hPa 0,0 l/m 4,0 km/h (1 Bft) S-SW 202 15,0 C 36,2 C 4,3 km/h (1 Bft)
19.06.2013 18:30 31,0 C 38 % 1018,5 hPa 0,0 l/m 4,0 km/h (1 Bft) W-NW 292 15,0 C 35,9 C 2,1 km/h (1 Bft)
19.06.2013 18:35 31,0 C 39 % 1018,5 hPa 0,0 l/m 3,9 km/h (1 Bft) S 180 15,4 C 36,0 C 3,9 km/h (1 Bft)
19.06.2013 18:40 30,8 C 39 % 1018,5 hPa 0,0 l/m 3,5 km/h (1 Bft) S-SO 157 15,2 C 35,6 C 3,2 km/h (1 Bft)
19.06.2013 18:45 30,6 C 39 % 1018,3 hPa 0,0 l/m 4,5 km/h (1 Bft) S-SW 202 15,0 C 35,6 C 8,0 km/h (2 Bft)
19.06.2013 18:50 30,5 C 42 % 1018,3 hPa 0,0 l/m 4,8 km/h (1 Bft) S-SW 202 16,1 C 35,2 C 5,5 km/h (1 Bft)
19.06.2013 18:55 30,5 C 42 % 1018,3 hPa 0,0 l/m 4,5 km/h (1 Bft) S 180 16,1 C 35,2 C 5,0 km/h (1 Bft)
19.06.2013 19:00 30,2 C 43 % 1018,3 hPa 0,0 l/m 3,5 km/h (1 Bft) S 180 16,2 C 35,2 C 1,8 km/h (1 Bft)
19.06.2013 19:05 30,0 C 43 % 1018,8 hPa 0,0 l/m 3,7 km/h (1 Bft) S-SO 157 16,0 C 35,3 C 5,8 km/h (2 Bft)
19.06.2013 19:11 29,9 C 43 % 1018,8 hPa 0,0 l/m 3,1 km/h (1 Bft) S 180 15,9 C 34,8 C 4,0 km/h (1 Bft)
19.06.2013 19:15 29,7 C 43 % 1018,8 hPa 0,0 l/m 3,2 km/h (1 Bft) S 180 15,8 C 34,8 C 3,5 km/h (1 Bft)
19.06.2013 19:20 29,5 C 45 % 1018,8 hPa 0,0 l/m 2,7 km/h (1 Bft) W-SW 247 16,3 C 34,6 C 2,9 km/h (1 Bft)
19.06.2013 19:25 29,6 C 44 % 1018,3 hPa 0,0 l/m 2,3 km/h (1 Bft) S 180 16,0 C 34,7 C 4,5 km/h (1 Bft)
19.06.2013 19:30 29,5 C 43 % 1018,3 hPa 0,0 l/m 2,4 km/h (1 Bft) S 180 15,6 C 34,5 C 2,7 km/h (1 Bft)
19.06.2013 19:35 29,4 C 44 % 1018,3 hPa 0,0 l/m 2,3 km/h (1 Bft) W-SW 247 15,8 C 34,5 C 2,4 km/h (1 Bft)
19.06.2013 19:40 29,1 C 45 % 1018,3 hPa 0,0 l/m 1,6 km/h (1 Bft) W-SW 247 15,9 C 34,5 C 6,6 km/h (2 Bft)
19.06.2013 19:45 29,1 C 43 % 1018,4 hPa 0,0 l/m 1,6 km/h (1 Bft) W-SW 247 15,2 C 34,3 C 1,9 km/h (1 Bft)
19.06.2013 19:50 28,7 C 44 % 1018,4 hPa 0,0 l/m 1,1 km/h (1 Bft) W 270 15,2 C 34,6 C 0,0 km/h (0 Bft)
19.06.2013 19:55 28,7 C 44 % 1018,4 hPa 0,0 l/m 1,0 km/h (0 Bft) W-NW 292 15,2 C 34,4 C 1,9 km/h (1 Bft)
19.06.2013 20:00 28,6 C 46 % 1018,4 hPa 0,0 l/m 2,1 km/h (1 Bft) O-SO 112 15,8 C 33,8 C 4,8 km/h (1 Bft)
19.06.2013 20:05 28,3 C 46 % 1018,2 hPa 0,0 l/m 1,6 km/h (1 Bft) N 360 15,6 C 33,4 C 2,3 km/h (1 Bft)
19.06.2013 20:10 27,8 C 47 % 1018,2 hPa 0,0 l/m 1,0 km/h (0 Bft) O 90 15,4 C 33,0 C 0,0 km/h (0 Bft)
19.06.2013 20:15 27,5 C 48 % 1018,2 hPa 0,0 l/m 1,0 km/h (0 Bft) N-NW 337 15,5 C 32,6 C 1,9 km/h (1 Bft)
19.06.2013 20:20 27,4 C 48 % 1018,2 hPa 0,0 l/m 0,6 km/h (0 Bft) N 360 15,4 C 32,3 C 0,0 km/h (0 Bft)
19.06.2013 20:25 27,4 C 49 % 1018,2 hPa 0,0 l/m 0,3 km/h (0 Bft) W 270 15,7 C 32,1 C 0,0 km/h (0 Bft)
19.06.2013 20:30 26,7 C 50 % 1018,2 hPa 0,0 l/m 0,3 km/h (0 Bft) O-NO 67 15,4 C 31,8 C 2,6 km/h (1 Bft)
19.06.2013 20:35 26,3 C 50 % 1018,2 hPa 0,0 l/m 1,1 km/h (1 Bft) O 90 15,0 C 30,9 C 0,0 km/h (0 Bft)
19.06.2013 20:40 26,0 C 53 % 1018,2 hPa 0,0 l/m 3,1 km/h (1 Bft) NO 45 15,7 C 29,7 C 3,9 km/h (1 Bft)
19.06.2013 20:45 25,6 C 56 % 1018,2 hPa 0,0 l/m 3,5 km/h (1 Bft) O-SO 112 16,2 C 28,7 C 4,5 km/h (1 Bft)
19.06.2013 20:50 25,2 C 56 % 1018,2 hPa 0,0 l/m 4,0 km/h (1 Bft) O-SO 112 15,8 C 27,2 C 3,9 km/h (1 Bft)
19.06.2013 20:55 24,7 C 58 % 1018,2 hPa 0,0 l/m 3,5 km/h (1 Bft) O 90 15,9 C 26,5 C 3,9 km/h (1 Bft)
19.06.2013 21:00 24,1 C 60 % 1018,2 hPa 0,0 l/m 2,9 km/h (1 Bft) N-NO 22 15,8 C 25,2 C 3,2 km/h (1 Bft)
19.06.2013 21:05 23,3 C 62 % 1018,4 hPa 0,0 l/m 3,1 km/h (1 Bft) O-NO 67 15,6 C 24,6 C 4,5 km/h (1 Bft)
19.06.2013 21:10 23,0 C 64 % 1018,4 hPa 0,0 l/m 3,7 km/h (1 Bft) O 90 15,8 C 23,9 C 4,8 km/h (1 Bft)
19.06.2013 21:15 22,6 C 66 % 1018,4 hPa 0,0 l/m 3,2 km/h (1 Bft) N 360 15,9 C 23,7 C 0,0 km/h (0 Bft)
19.06.2013 21:20 22,5 C 68 % 1018,4 hPa 0,0 l/m 1,3 km/h (1 Bft) O 90 16,3 C 23,1 C 3,9 km/h (1 Bft)
19.06.2013 21:25 22,8 C 68 % 1018,4 hPa 0,0 l/m 1,9 km/h (1 Bft) O-SO 112 16,6 C 22,8 C 4,7 km/h (1 Bft)
19.06.2013 21:30 22,9 C 66 % 1018,4 hPa 0,0 l/m 4,0 km/h (1 Bft) O-NO 67 16,2 C 22,8 C 3,9 km/h (1 Bft)
19.06.2013 21:35 22,6 C 66 % 1018,4 hPa 0,0 l/m 3,2 km/h (1 Bft) O-SO 112 15,9 C 22,8 C 0,0 km/h (0 Bft)
19.06.2013 21:40 21,9 C 68 % 1018,4 hPa 0,0 l/m 1,1 km/h (1 Bft) O-SO 112 15,7 C 22,4 C 3,1 km/h (1 Bft)
19.06.2013 21:45 22,3 C 67 % 1018,5 hPa 0,0 l/m 1,4 km/h (1 Bft) NO 45 15,9 C 22,2 C 4,3 km/h (1 Bft)
19.06.2013 21:50 22,2 C 68 % 1018,5 hPa 0,0 l/m 3,7 km/h (1 Bft) O-NO 67 16,0 C 22,3 C 4,0 km/h (1 Bft)
19.06.2013 21:55 22,1 C 68 % 1018,5 hPa 0,0 l/m 4,2 km/h (1 Bft) NO 45 15,9 C 22,3 C 6,3 km/h (2 Bft)
19.06.2013 22:00 22,1 C 67 % 1018,5 hPa 0,0 l/m 3,9 km/h (1 Bft) NO 45 15,7 C 22,2 C 3,7 km/h (1 Bft)
19.06.2013 22:05 22,2 C 67 % 1018,7 hPa 0,0 l/m 3,7 km/h (1 Bft) O-NO 67 15,8 C 22,1 C 5,6 km/h (1 Bft)
19.06.2013 22:10 22,2 C 65 % 1018,7 hPa 0,0 l/m 4,3 km/h (1 Bft) NO 45 15,3 C 22,2 C 5,1 km/h (1 Bft)
19.06.2013 22:16 22,3 C 64 % 1018,7 hPa 0,0 l/m 4,7 km/h (1 Bft) O 90 15,2 C 22,3 C 4,2 km/h (1 Bft)
19.06.2013 22:20 22,2 C 65 % 1018,7 hPa 0,0 l/m 4,3 km/h (1 Bft) O 90 15,3 C 22,4 C 4,7 km/h (1 Bft)
19.06.2013 22:25 22,0 C 65 % 1018,8 hPa 0,0 l/m 4,3 km/h (1 Bft) O 90 15,1 C 22,3 C 6,3 km/h (2 Bft)
19.06.2013 22:30 21,8 C 67 % 1018,8 hPa 0,0 l/m 5,0 km/h (1 Bft) O 90 15,4 C 22,3 C 6,6 km/h (2 Bft)
19.06.2013 22:35 21,6 C 68 % 1018,8 hPa 0,0 l/m 5,5 km/h (1 Bft) O-NO 67 15,4 C 22,1 C 6,1 km/h (2 Bft)
19.06.2013 22:40 21,6 C 68 % 1018,8 hPa 0,0 l/m 5,5 km/h (1 Bft) O 90 15,4 C 22,1 C 5,3 km/h (1 Bft)
19.06.2013 22:45 21,4 C 68 % 1018,8 hPa 0,0 l/m 4,8 km/h (1 Bft) O 90 15,2 C 21,9 C 4,7 km/h (1 Bft)
19.06.2013 22:50 20,9 C 71 % 1018,8 hPa 0,0 l/m 3,9 km/h (1 Bft) O 90 15,4 C 21,5 C 3,2 km/h (1 Bft)
19.06.2013 22:55 20,6 C 70 % 1018,8 hPa 0,0 l/m 2,9 km/h (1 Bft) O 90 14,9 C 21,2 C 3,5 km/h (1 Bft)
19.06.2013 23:00 20,5 C 70 % 1018,8 hPa 0,0 l/m 1,9 km/h (1 Bft) O 90 14,8 C 20,9 C 2,1 km/h (1 Bft)
19.06.2013 23:05 20,5 C 70 % 1018,9 hPa 0,0 l/m 1,6 km/h (1 Bft) O 90 14,8 C 20,9 C 2,7 km/h (1 Bft)
19.06.2013 23:10 20,4 C 70 % 1018,9 hPa 0,0 l/m 1,8 km/h (1 Bft) O 90 14,7 C 20,7 C 2,4 km/h (1 Bft)
19.06.2013 23:15 20,5 C 70 % 1018,9 hPa 0,0 l/m 1,6 km/h (1 Bft) O 90 14,8 C 20,7 C 2,4 km/h (1 Bft)
19.06.2013 23:20 20,2 C 70 % 1018,9 hPa 0,0 l/m 1,8 km/h (1 Bft) O 90 14,5 C 20,5 C 2,3 km/h (1 Bft)
19.06.2013 23:25 20,0 C 70 % 1018,8 hPa 0,0 l/m 1,4 km/h (1 Bft) O 90 14,4 C 20,3 C 1,9 km/h (1 Bft)
19.06.2013 23:30 19,8 C 70 % 1018,8 hPa 0,0 l/m 0,5 km/h (0 Bft) O 90 14,2 C 20,1 C 1,6 km/h (1 Bft)
19.06.2013 23:35 19,8 C 71 % 1018,8 hPa 0,0 l/m 0,3 km/h (0 Bft) O-SO 112 14,4 C 20,0 C 0,0 km/h (0 Bft)
19.06.2013 23:40 19,9 C 71 % 1018,8 hPa 0,0 l/m 0,3 km/h (0 Bft) SO 135 14,5 C 19,9 C 0,0 km/h (0 Bft)
19.06.2013 23:45 19,6 C 71 % 1018,8 hPa 0,0 l/m 0,3 km/h (0 Bft) O 90 14,2 C 19,8 C 0,0 km/h (0 Bft)
19.06.2013 23:50 19,5 C 71 % 1018,8 hPa 0,0 l/m 0,0 km/h (0 Bft) O 90 14,1 C 19,7 C 0,0 km/h (0 Bft)
19.06.2013 23:55 19,5 C 71 % 1018,8 hPa 0,0 l/m 0,0 km/h (0 Bft) S-SW 202 14,1 C 19,6 C 0,0 km/h (0 Bft)
_ Min-Zeit 05:35 15:45 08:40 - 23:55 - - 11:05 05:10 23:55
Minimum _ 15,8 C 20 % 1018,1 hPa - 0,0 km/h (0 Bft) - - 7,9 C 16,0 C 0,0 km/h (0 Bft)
_ Max-Zeit 16:15 05:05 00:00 23:55 17:35 - - 08:30 16:00 10:40
Maximum _ 35,0 C 77 % 1020,9 hPa 0,0 l/m 5,6 km/h
W (1 Bft)
- - 16,6 C 39,3 C 13,0 km/h
SO (3 Bft)
Durchschnitt _ 26,6 C 48 % 1019,0 hPa #0,0 l/m 2,0 km/h (1 Bft) S - 13,3 C 28,6 C 2,8 km/h (1 Bft)